When you browse on this site, cookies collect data to enhance your experience and personalize the content and advertising you see.
Visit our Privacy Policy to learn more. By continuing to use the site, you agree to this use of cookies and data.
  • In Hungary
  • List of Countries
  • For 7 days
  • Water Temperature
  • Satellite Maps
  • Weather Map
  • News
  • Weather Widgets
  • user-avatar
    Login

    Hourly Weather Sao Jose dos Pinhais

    Today, 20 January, Sunday

    Time Temperature Precipitation Wind Pressure Humidity
    00:00 +21°C° 0.7 mm 2 mps 686 mmHg 95%
    01:00 +20°C° 0 mm 2 mps 686 mmHg 96%
    02:00 +20°C° 0 mm 2 mps 685 mmHg 96%
    03:00 +20°C° 0 mm 2 mps 685 mmHg 96%
    04:00 +20°C° 0 mm 2 mps 685 mmHg 96%
    05:00 +20°C° 0 mm 1 mps 685 mmHg 95%
    06:00 +20°C° 0 mm 1 mps 685 mmHg 95%
    07:00 +21°C° 0.1 mm 1 mps 685 mmHg 94%
    08:00 +21°C° 0.1 mm 1 mps 686 mmHg 92%
    09:00 +21°C° 0.1 mm 1 mps 686 mmHg 91%
    10:00 +23°C° 0.1 mm 1 mps 687 mmHg 83%
    11:00 +25°C° 0.1 mm 2 mps 687 mmHg 75%
    12:00 +27°C° 0.1 mm 2 mps 687 mmHg 67%
    13:00 +26°C° 0.8 mm 2 mps 687 mmHg 71%
    14:00 +26°C° 0.8 mm 2 mps 686 mmHg 75%
    15:00 +26°C° 0.8 mm 2 mps 686 mmHg 79%
    16:00 +25°C° 0.9 mm 2 mps 686 mmHg 83%
    17:00 +24°C° 0.9 mm 2 mps 685 mmHg 87%
    18:00 +23°C° 0.9 mm 2 mps 685 mmHg 90%
    19:00 +23°C° 0.2 mm 2 mps 686 mmHg 92%
    20:00 +21°C° 0.2 mm 2 mps 686 mmHg 94%
    21:00 +21°C° 0.2 mm 2 mps 686 mmHg 95%
    22:00 +21°C° 0 mm 2 mps 686 mmHg 95%
    23:00 +21°C° 0 mm 2 mps 686 mmHg 95%

    Tomorrow, 21 January, Monday

    Time Temperature Precipitation Wind Pressure Humidity
    00:00 +21°C° 0 mm 1 mps 686 mmHg 95%
    01:00 +21°C° 0 mm 1 mps 686 mmHg 96%
    02:00 +21°C° 0 mm 1 mps 685 mmHg 96%
    03:00 +21°C° 0 mm 1 mps 685 mmHg 97%
    04:00 +21°C° 0 mm 1 mps 685 mmHg 96%
    05:00 +21°C° 0 mm 1 mps 685 mmHg 96%
    06:00 +21°C° 0 mm 1 mps 685 mmHg 96%
    07:00 +23°C° 0 mm 1 mps 686 mmHg 90%
    08:00 +24°C° 0 mm 1 mps 687 mmHg 85%
    09:00 +25°C° 0 mm 2 mps 687 mmHg 80%
    10:00 +27°C° 0.1 mm 2 mps 687 mmHg 73%
    11:00 +29°C° 0.1 mm 2 mps 687 mmHg 65%
    12:00 +30°C° 0.1 mm 2 mps 687 mmHg 58%
    13:00 +31°C° 1.2 mm 2 mps 687 mmHg 60%
    14:00 +31°C° 1.2 mm 1 mps 686 mmHg 62%
    15:00 +31°C° 1.2 mm 1 mps 686 mmHg 64%
    16:00 +30°C° 0.7 mm 1 mps 686 mmHg 68%
    17:00 +29°C° 0.7 mm 1 mps 686 mmHg 71%
    18:00 +28°C° 0.7 mm 1 mps 685 mmHg 75%
    19:00 +27°C° 1.3 mm 1 mps 686 mmHg 79%
    20:00 +23°C° 1.3 mm 0 mps 686 mmHg 83%
    21:00 +22°C° 1.3 mm 0 mps 686 mmHg 87%
    22:00 +22°C° 0.2 mm 0 mps 686 mmHg 88%
    23:00 +21°C° 0.2 mm 0 mps 686 mmHg 88%

    Day after tomorrow, 22 January, Tuesday

    Time Temperature Precipitation Wind Pressure Humidity
    00:00 +23°C° 0.2 mm 1 mps 686 mmHg 89%
    01:00 +23°C° 0 mm 1 mps 686 mmHg 90%
    02:00 +22°C° 0 mm 1 mps 686 mmHg 91%
    03:00 +22°C° 0 mm 1 mps 685 mmHg 92%
    04:00 +22°C° 0 mm 1 mps 685 mmHg 92%
    05:00 +22°C° 0 mm 1 mps 685 mmHg 92%
    06:00 +22°C° 0 mm 1 mps 686 mmHg 93%
    07:00 +22°C° 0 mm 0 mps 686 mmHg 82%
    08:00 +25°C° 0 mm 0 mps 687 mmHg 72%
    09:00 +27°C° 0 mm 0 mps 688 mmHg 62%
    10:00 +29°C° 0.4 mm 0 mps 688 mmHg 60%
    11:00 +30°C° 0.4 mm 0 mps 688 mmHg 59%
    12:00 +31°C° 0.4 mm 0 mps 688 mmHg 57%
    13:00 +32°C° 1.5 mm 1 mps 687 mmHg 62%
    14:00 +31°C° 1.5 mm 1 mps 687 mmHg 68%
    15:00 +30°C° 1.5 mm 2 mps 686 mmHg 73%
    16:00 +28°C° 1.9 mm 2 mps 686 mmHg 78%
    17:00 +27°C° 1.9 mm 2 mps 686 mmHg 83%
    18:00 +26°C° 1.9 mm 2 mps 685 mmHg 87%
    19:00 +25°C° 0.9 mm 2 mps 686 mmHg 89%
    20:00 +24°C° 0.9 mm 2 mps 686 mmHg 91%
    21:00 +24°C° 0.9 mm 1 mps 687 mmHg 93%
    22:00 +23°C° 0 mm 1 mps 687 mmHg 93%
    23:00 +23°C° 0 mm 1 mps 687 mmHg 94%

    23 January, Wednesday

    Time Temperature Precipitation Wind Pressure Humidity
    00:00 +23°C° 0 mm 1 mps 687 mmHg 94%
    01:00 +20°C° 0 mm 0 mps 686 mmHg 94%
    02:00 +20°C° 0 mm 0 mps 686 mmHg 94%
    03:00 +20°C° 0 mm 0 mps 685 mmHg 93%
    04:00 +20°C° 0 mm 0 mps 686 mmHg 93%
    05:00 +20°C° 0 mm 0 mps 686 mmHg 93%
    06:00 +20°C° 0 mm 0 mps 686 mmHg 93%
    07:00 +22°C° 0 mm 0 mps 687 mmHg 83%
    08:00 +25°C° 0 mm 0 mps 688 mmHg 73%
    09:00 +27°C° 0 mm 0 mps 689 mmHg 63%
    10:00 +29°C° 0.1 mm 0 mps 688 mmHg 57%
    11:00 +31°C° 0.1 mm 0 mps 688 mmHg 52%
    12:00 +32°C° 0.1 mm 0 mps 688 mmHg 46%
    13:00 +31°C° 1.9 mm 0 mps 687 mmHg 55%
    14:00 +32°C° 1.9 mm 1 mps 687 mmHg 64%
    15:00 +30°C° 1.9 mm 1 mps 686 mmHg 73%
    16:00 +29°C° 2.6 mm 1 mps 685 mmHg 76%
    17:00 +28°C° 2.6 mm 1 mps 685 mmHg 79%
    18:00 +27°C° 2.6 mm 1 mps 685 mmHg 83%
    19:00 +26°C° 0.6 mm 1 mps 685 mmHg 84%
    20:00 +25°C° 0.6 mm 1 mps 686 mmHg 85%
    21:00 +24°C° 0.6 mm 1 mps 686 mmHg 86%
    22:00 +24°C° 0 mm 1 mps 686 mmHg 87%
    23:00 +22°C° 0 mm 0 mps 686 mmHg 87%

    24 January, Thursday

    Time Temperature Precipitation Wind Pressure Humidity
    00:00 +21°C° 0 mm 0 mps 686 mmHg 88%
    01:00 +21°C° 0 mm 0 mps 685 mmHg 88%
    02:00 +21°C° 0 mm 0 mps 685 mmHg 89%
    03:00 +23°C° 0 mm 1 mps 684 mmHg 89%
    04:00 +20°C° 0 mm 0 mps 684 mmHg 90%
    05:00 +20°C° 0 mm 0 mps 685 mmHg 90%
    06:00 +20°C° 0 mm 0 mps 685 mmHg 90%
    07:00 +22°C° 0 mm 0 mps 686 mmHg 80%
    08:00 +25°C° 0 mm 0 mps 686 mmHg 70%
    09:00 +27°C° 0 mm 0 mps 687 mmHg 60%
    10:00 +30°C° 0.2 mm 1 mps 687 mmHg 59%
    11:00 +31°C° 0.2 mm 1 mps 687 mmHg 57%
    12:00 +32°C° 0.2 mm 2 mps 687 mmHg 56%
    13:00 +31°C° 1.5 mm 2 mps 686 mmHg 61%
    14:00 +30°C° 1.5 mm 2 mps 685 mmHg 65%
    15:00 +29°C° 1.5 mm 3 mps 685 mmHg 70%
    16:00 +28°C° 1.3 mm 3 mps 685 mmHg 76%
    17:00 +27°C° 1.3 mm 3 mps 685 mmHg 81%
    18:00 +25°C° 1.3 mm 3 mps 685 mmHg 87%
    19:00 +25°C° 0.5 mm 3 mps 685 mmHg 89%
    20:00 +24°C° 0.5 mm 2 mps 686 mmHg 91%
    21:00 +23°C° 0.5 mm 2 mps 686 mmHg 94%
    22:00 +21°C° 0 mm 2 mps 686 mmHg 94%
    23:00 +22°C° 0 mm 1 mps 686 mmHg 95%

    25 January, Friday

    Time Temperature Precipitation Wind Pressure Humidity
    00:00 +21°C° 0 mm 1 mps 686 mmHg 95%
    01:00 +21°C° 0 mm 1 mps 685 mmHg 95%
    02:00 +19°C° 0 mm 0 mps 685 mmHg 95%
    03:00 +18°C° 0 mm 0 mps 684 mmHg 95%
    04:00 +18°C° 0 mm 0 mps 684 mmHg 95%
    05:00 +18°C° 0 mm 0 mps 684 mmHg 95%
    06:00 +18°C° 0 mm 0 mps 685 mmHg 94%
    07:00 +22°C° 0 mm 1 mps 685 mmHg 85%
    08:00 +24°C° 0 mm 1 mps 686 mmHg 75%
    09:00 +26°C° 0 mm 1 mps 687 mmHg 65%
    10:00 +28°C° 0 mm 1 mps 687 mmHg 60%
    11:00 +30°C° 0 mm 1 mps 687 mmHg 54%
    12:00 +32°C° 0 mm 1 mps 687 mmHg 49%
    13:00 +32°C° 0.1 mm 1 mps 687 mmHg 50%
    14:00 +31°C° 0.1 mm 1 mps 686 mmHg 51%
    15:00 +31°C° 0.1 mm 1 mps 686 mmHg 53%
    16:00 +30°C° 0.5 mm 1 mps 685 mmHg 60%
    17:00 +29°C° 0.5 mm 1 mps 685 mmHg 67%
    18:00 +28°C° 0.5 mm 1 mps 685 mmHg 74%
    19:00 +26°C° 0.3 mm 1 mps 685 mmHg 79%
    20:00 +25°C° 0.3 mm 1 mps 686 mmHg 84%
    21:00 +23°C° 0.3 mm 1 mps 686 mmHg 89%
    22:00 +23°C° 0 mm 1 mps 686 mmHg 91%
    23:00 +23°C° 0 mm 1 mps 686 mmHg 92%
    Show more